Regional Weather Roundup
Issued by NWS

Home | Current Version | Previous Version | Text Only | Print | Product List | Glossary Off
Versions: 1 2 3 4 5 6 7 8 9 10 11 12 13 14 15 16 17 18 19 20 21 22 23 24 25 26 27 28

000
ASUS45 KCYS 200810
RWRWY

WYOMING REGIONAL WEATHER ROUNDUP
NATIONAL WEATHER SERVICE CHEYENNE WY
100 AM MST MON NOV 20 2017

NOTE:  "FAIR" INDICATES FEW OR NO CLOUDS BELOW 12,000 FEET
WITH NO SIGNIFICANT WEATHER AND/OR OBSTRUCTIONS TO VISIBILITY.

WYZ001-200900-
YELLOWSTONE NATIONAL PARK

CITY           SKY/WX    TMP DP  RH WIND       PRES   REMARKS
LK YELLOWSTONE   N/A     13  11  92 CALM      29.98F
W YELLOWSTONE  NOT AVBL

$$
WYZ002>013-054>058-071-098>099-200900-
NORTHERN WYOMING

CITY           SKY/WX    TMP DP  RH WIND       PRES   REMARKS
JACKSON        FAIR      16  13  88 N8          N/A  WCI   5
CODY           FAIR      44   5  20 S9        29.77F
GREYBULL       FAIR      24  22  91 SE5       29.78F WCI  18
WORLAND        FAIR      22  21  96 SE3       29.79F
SHERIDAN       FAIR      36  22  56 S5        29.64F WCI  32
BUFFALO        FAIR      43  17  35 W6        29.69F
GILLETTE       FAIR      44  10  25 SW24G32   29.68F
HULETT         FAIR      43  12  28 SW12      29.70F
NEWCASTLE      FAIR      32  16  51 E5        29.77F WCI  27

$$
WYZ014>020-022>026-101>103-200900-
CENTRAL WYOMING

CITY           SKY/WX    TMP DP  RH WIND       PRES   REMARKS
BIG PINEY      FAIR       4   2  91 CALM      30.05F
PINEDALE       FAIR      12  10  92 NW5       30.05F WCI   4
DUBOIS         FAIR      30   5  34 NW21      29.90S WCI  17
LANDER         FAIR      30  10  43 NW8       29.85F WCI  22
RIVERTON       FAIR      29  12  49 SW8       29.86F WCI  21
CASPER         FAIR      38  12  34 SW28G37   29.85F WCI  26
DOUGLAS        FAIR      37  13  37 N5        29.80F WCI  33

$$
WYZ021-027>030-104>119-200900-
SOUTHERN WYOMING

CITY           SKY/WX    TMP DP  RH WIND       PRES   REMARKS
EVANSTON       FAIR      25  15  66 SW12      30.06F WCI  14
FORT BRIDGER   FAIR      27  11  49 W7        30.08S WCI  20
ROCK SPRINGS   FAIR      20  14  77 W3        30.05F
DIXON          FAIR      14  10  82 CALM      30.14R
RAWLINS        FAIR      36  12  37 SW17G24   30.01S WCI  26
SARATOGA       FAIR      30  14  51 SW10G16   30.05R WCI  21
LARAMIE        FAIR      37   5  26 W28G39    29.93F WCI  25
CHEYENNE       FAIR      43   2  18 SW18G28   29.89F
TORRINGTON     FAIR      45  10  24 W17G26    29.79F
PINE BLUFFS    FAIR      41   1  19 MISG      29.86F

$$




USA.gov is the U.S. government's official web portal to all federal, state and local government web resources and services.